FW1589 Weather Reports


Display with metric or nautical units.
time (UTC)temp
F
wind
direction
speed
MPH
gust
MPH
rain 1hr
in
rain 24hr
in
rain mn
in
humidity
%
barometer
mb
20260903005306 67 236 5.0 10.0 0.00 0.00 0.00 74 999.1
20260903004800 67 180 4.0 10.0 0.00 0.00 0.00 74 999.1
20260903004254 67 217 3.0 5.0 0.00 0.00 0.00 74 999.1
20260903003748 67 239 4.0 7.0 0.00 0.00 0.00 74 999.1
20260903003243 68 248 3.0 7.0 0.00 0.00 0.00 73 999.2
20260903002735 68 236 4.0 6.0 0.00 0.00 0.00 73 999.2
20260903002229 68 214 3.0 7.0 0.00 0.00 0.00 73 999.3
20260903001724 69 234 3.0 7.0 0.00 0.00 0.00 74 999.3
20260903001218 68 235 3.0 7.0 0.00 0.00 0.00 75 999.4
20260903000712 68 273 3.0 7.0 0.00 0.00 0.00 75 999.3
20260903000206 68 203 4.0 8.0 0.00 0.00 0.00 75 999.4
20260902235700 68 163 4.0 8.0 0.00 0.00 0.00 75 999.3
20260902235154 68 219 4.0 8.0 0.00 0.00 0.00 74 999.3
20260902234648 68 196 3.0 7.0 0.00 0.00 0.00 73 999.4
20260902234141 69 179 4.0 10.0 0.00 0.00 0.00 72 999.4
20260902233635 69 267 3.0 10.0 0.00 0.00 0.00 71 999.5
20260902233129 70 232 4.0 10.0 0.00 0.00 0.00 71 999.5
20260902232623 69 203 4.0 10.0 0.00 0.00 0.00 71 999.4
20260902232117 69 234 5.0 11.0 0.00 0.00 0.00 69 999.4
20260902231612 69 283 5.0 11.0 0.00 0.00 0.00 69 999.5
20260902231105 69 281 5.0 9.0 0.00 0.00 0.00 69 999.5
20260902230600 69 190 5.0 9.0 0.00 0.00 0.00 68 999.7
20260902230054 69 241 5.0 12.0 0.00 0.00 0.00 68 999.7
20260902225547 70 215 5.0 12.0 0.00 0.00 0.00 67 999.7
20260902225042 70 242 5.0 10.0 0.00 0.00 0.00 66 999.7
20260902224536 70 208 5.0 12.0 0.00 0.00 0.00 66 999.9
20260902224030 70 246 5.0 12.0 0.00 0.00 0.00 66 999.8
20260902223524 71 204 4.0 9.0 0.00 0.00 0.00 65 999.8
20260902223018 71 207 4.0 9.0 0.00 0.00 0.00 65 1000.0
20260902222006 71 196 4.0 12.0 0.00 0.00 0.00 66 1000.0
20260902221500 70 238 4.0 12.0 0.00 0.00 0.00 68 999.9
20260902220953 70 275 5.0 11.0 0.00 0.00 0.00 68 1000.0
20260902220447 70 282 5.0 11.0 0.00 0.00 0.00 69 1000.1
20260902215942 69 255 5.0 10.0 0.00 0.00 0.00 70 1000.1
20260902215436 69 229 5.0 10.0 0.00 0.00 0.00 70 1000.2
20260902214929 69 244 6.0 10.0 0.00 0.00 0.00 69 1000.2
20260902214424 69 227 5.0 10.0 0.00 0.00 0.00 69 1000.2
20260902213918 70 206 4.0 8.0 0.00 0.00 0.00 70 1000.2
20260902213411 69 225 4.0 11.0 0.00 0.00 0.00 69 1000.2
20260902212906 69 198 5.0 11.0 0.00 0.00 0.00 69 1000.2
20260902212359 70 243 5.0 11.0 0.00 0.00 0.00 69 1000.2
20260902211854 70 262 5.0 10.0 0.00 0.00 0.00 71 1000.2
20260902211348 70 318 5.0 11.0 0.00 0.00 0.00 70 1000.3
20260902210842 70 214 4.0 11.0 0.00 0.00 0.00 71 1000.2
20260902205836 70 257 4.0 11.0 0.00 0.00 0.00 72 1000.3
20260902204835 69 220 5.0 10.0 0.00 0.00 0.00 74 1000.2
20260902204336 69 279 5.0 10.0 0.00 0.00 0.00 74 1000.3
20260902203836 69 264 4.0 11.0 0.00 0.00 0.00 74 1000.3
20260902203334 69 255 5.0 12.0 0.00 0.00 0.00 74 1000.3
20260902202335 68 257 3.0 11.0 0.00 0.00 0.00 78 1000.2
20260902201834 67 279 3.0 8.0 0.00 0.00 0.00 80 1000.3
20260902200835 66 223 4.0 11.0 0.00 0.00 0.00 82 1000.3
20260902200335 65 214 4.0 11.0 0.00 0.00 0.00 83 1000.4
20260902195836 65 300 4.0 11.0 0.00 0.00 0.00 83 1000.4
20260902195335 64 298 3.0 9.0 0.00 0.00 0.00 84 1000.6
20260902193831 64 254 4.0 10.0 0.00 0.00 0.00 83 1000.6
20260902193330 64 248 4.0 9.0 0.00 0.00 0.00 83 1000.6
20260902192831 65 291 3.0 9.0 0.00 0.00 0.00 83 1000.6
20260902191831 65 266 4.0 11.0 0.00 0.00 0.00 84 1000.7
20260902191331 64 273 3.0 11.0 0.00 0.00 0.00 84 1000.8
20260902190832 64 267 4.0 10.0 0.00 0.00 0.00 85 1000.8
20260902190331 64 252 4.0 10.0 0.00 0.00 0.00 85 1000.7
20260902185826 64 180 3.0 12.0 0.00 0.00 0.00 86 1000.7
20260902185326 63 267 3.0 12.0 0.00 0.00 0.00 86 1000.8
20260902184828 64 294 3.0 12.0 0.00 0.00 0.00 85 1000.7
20260902184326 64 273 2.0 10.0 0.00 0.00 0.00 86 1000.7
20260902183826 64 269 2.0 10.0 0.00 0.00 0.00 86 1000.7
20260902183327 64 231 2.0 10.0 0.00 0.00 0.00 85 1000.7
20260902182328 64 210 3.0 8.0 0.00 0.00 0.00 85 1000.6
20260902181323 64 220 3.0 8.0 0.00 0.00 0.00 84 1000.5
20260902180823 64 281 3.0 8.0 0.00 0.00 0.00 83 1000.5
20260902180322 64 279 3.0 9.0 0.00 0.00 0.00 83 1000.5
20260902175822 65 271 4.0 9.0 0.00 0.00 0.00 82 1000.4
20260902175323 65 280 3.0 9.0 0.00 0.00 0.00 80 1000.3
20260902174322 66 273 3.0 8.0 0.00 0.00 0.00 77 1000.3
20260902173823 66 262 3.0 8.0 0.00 0.00 0.00 76 1000.2
20260902173323 66 211 4.0 13.0 0.00 0.00 0.00 76 1000.1
20260902172820 66 206 5.0 13.0 0.00 0.00 0.00 76 999.9
20260902172320 66 187 5.0 13.0 0.00 0.00 0.00 75 999.9
20260902171820 67 182 5.0 13.0 0.00 0.00 0.00 75 999.9
20260902171322 66 221 4.0 10.0 0.00 0.00 0.00 74 999.7
20260902165821 66 191 5.0 10.0 0.00 0.00 0.00 75 999.8
20260902165321 66 251 5.0 10.0 0.00 0.00 0.00 76 999.8
20260902164822 65 175 5.0 11.0 0.00 0.00 0.00 75 999.7
20260902164320 65 240 5.0 11.0 0.00 0.00 0.00 75 999.7
20260902163821 65 207 5.0 11.0 0.00 0.00 0.00 76 999.8
20260902163321 65 175 5.0 10.0 0.00 0.00 0.00 76 999.7
20260902162821 64 253 4.0 7.0 0.00 0.00 0.00 77 999.6
20260902162314 64 200 4.0 8.0 0.00 0.00 0.00 77 999.8
20260902161807 64 160 4.0 8.0 0.00 0.00 0.00 77 999.7
20260902161301 64 159 4.0 10.0 0.00 0.00 0.00 78 999.7
20260902160755 63 192 4.0 10.0 0.00 0.00 0.00 78 999.6
20260902160249 63 155 4.0 10.0 0.00 0.00 0.00 78 999.6
20260902155742 63 182 4.0 8.0 0.00 0.00 0.00 78 999.6
20260902155238 63 197 4.0 8.0 0.00 0.00 0.00 78 999.5
20260902154738 63 177 3.0 7.0 0.00 0.00 0.00 79 999.5
20260902154239 62 177 4.0 8.0 0.00 0.00 0.00 78 999.6
20260902153238 62 162 2.0 6.0 0.00 0.00 0.00 79 999.7
20260902152740 62 182 2.0 6.0 0.00 0.00 0.00 79 999.7
20260902152239 62 194 3.0 5.0 0.00 0.00 0.00 79 999.7
20260902151738 62 201 2.0 5.0 0.00 0.00 0.00 79 999.8
20260902150737 61 188 2.0 5.0 0.00 0.00 0.00 80 999.7
20260902150236 61 205 3.0 7.0 0.00 0.00 0.00 79 999.6
20260902145736 61 194 3.0 8.0 0.00 0.00 0.00 79 999.6
20260902145236 61 180 2.0 8.0 0.00 0.00 0.00 79 999.4
20260902144738 61 161 2.0 5.0 0.00 0.00 0.00 79 999.3
20260902144237 60 153 1.0 5.0 0.00 0.00 0.00 79 999.1
20260902143737 60 171 2.0 6.0 0.00 0.00 0.00 79 998.9
20260902143230 60 148 3.0 6.0 0.00 0.00 0.00 79 998.9
20260902142724 60 165 3.0 7.0 0.00 0.00 0.00 80 998.8
20260902142219 60 146 3.0 10.0 0.00 0.00 0.00 79 999.0
20260902141719 60 146 3.0 10.0 0.00 0.00 0.00 80 999.0
20260902141207 60 157 2.0 8.0 0.00 0.00 0.00 80 998.9
20260902140701 60 153 3.0 6.0 0.00 0.00 0.00 80 998.9
20260902140155 60 185 3.0 7.0 0.00 0.00 0.00 80 999.1
20260902135649 60 180 2.0 6.0 0.00 0.00 0.00 80 999.0
20260902134130 60 198 2.0 5.0 0.00 0.00 0.00 79 998.9
20260902133625 60 167 2.0 6.0 0.00 0.00 0.00 79 998.8
20260902133122 60 155 2.0 6.0 0.00 0.00 0.00 79 998.8
20260902132622 60 187 3.0 10.0 0.00 0.00 0.00 79 998.9
20260902132121 60 197 3.0 10.0 0.00 0.00 0.00 79 998.7
20260902131618 61 143 2.0 8.0 0.00 0.00 0.00 80 998.7
20260902131118 61 194 2.0 5.0 0.00 0.00 0.00 80 998.8
20260902130618 61 184 2.0 7.0 0.00 0.00 0.00 80 998.8
20260902130118 61 161 2.0 7.0 0.00 0.00 0.00 80 998.7
20260902125618 61 191 2.0 6.0 0.00 0.00 0.00 80 998.7
20260902125118 61 196 3.0 8.0 0.00 0.00 0.00 80 998.7
20260902124619 61 178 2.0 8.0 0.00 0.00 0.00 80 998.7
20260902124119 61 166 3.0 7.0 0.00 0.00 0.00 80 998.7
20260902123618 61 172 3.0 7.0 0.00 0.00 0.00 80 998.6
20260902123118 61 182 2.0 6.0 0.00 0.00 0.00 81 998.7
20260902122619 61 153 2.0 5.0 0.00 0.00 0.00 81 998.7
20260902122116 61 161 2.0 5.0 0.00 0.00 0.00 81 998.6
20260902121616 61 197 2.0 5.0 0.00 0.00 0.00 82 998.6
20260902121116 61 171 2.0 5.0 0.00 0.00 0.00 82 998.7
20260902120617 61 183 3.0 7.0 0.00 0.00 0.00 82 998.7
20260902120111 61 180 3.0 7.0 0.00 0.00 0.00 82 998.7
20260902115605 61 181 3.0 6.0 0.00 0.00 0.00 83 998.7
20260902115059 60 198 2.0 6.0 0.00 0.00 0.00 84 998.7
20260902114553 60 175 0.0 4.0 0.00 0.00 0.00 84 998.6
20260902113540 60 204 2.0 5.0 0.00 0.00 0.00 84 998.6
20260902113034 60 209 2.0 5.0 0.00 0.00 0.00 85 998.6
20260902112529 60 159 2.0 6.0 0.00 0.00 0.00 85 998.5
20260902112023 60 165 2.0 6.0 0.00 0.00 0.00 85 998.5
20260902111010 60 160 1.0 4.0 0.00 0.00 0.00 85 998.5
20260902110505 60 160 0.0 4.0 0.00 0.00 0.00 85 998.6
20260902105959 60 158 0.0 1.0 0.00 0.00 0.00 85 998.7
20260902105453 60 158 0.0 2.0 0.00 0.00 0.00 85 998.7
20260902104947 60 159 0.0 2.0 0.00 0.00 0.00 85 998.8
20260902104441 60 159 0.0 1.0 0.00 0.00 0.00 85 998.8
20260902103934 60 159 0.0 3.0 0.00 0.00 0.00 85 998.9
20260902103429 60 167 1.0 4.0 0.00 0.00 0.00 85 998.9
20260902102923 60 167 1.0 4.0 0.00 0.00 0.00 86 998.9
20260902102417 60 163 1.0 4.0 0.00 0.00 0.00 86 998.9
20260902101910 60 157 1.0 4.0 0.00 0.00 0.00 86 998.9
20260902101404 60 163 1.0 5.0 0.00 0.00 0.00 86 998.9
20260902100859 60 153 1.0 5.0 0.00 0.00 0.00 86 998.9
20260902095847 60 153 1.0 5.0 0.00 0.00 0.00 86 998.9
20260902095341 60 167 1.0 4.0 0.00 0.00 0.00 86 998.9
20260902094840 60 190 1.0 4.0 0.00 0.00 0.00 87 999.0
20260902094341 60 171 1.0 4.0 0.00 0.00 0.00 87 999.0
20260902093841 60 158 0.0 4.0 0.00 0.00 0.00 87 999.1
20260902093340 60 170 0.0 0.0 0.00 0.00 0.00 87 999.0
20260902092838 60 171 0.0 0.0 0.00 0.00 0.00 87 999.0
20260902092335 60 171 1.0 5.0 0.00 0.00 0.00 87 999.1
20260902091834 60 171 2.0 5.0 0.00 0.00 0.00 87 999.1
20260902090832 60 168 1.0 4.0 0.00 0.00 0.00 86 999.1
20260902090331 60 194 0.0 1.0 0.00 0.00 0.00 86 999.2
20260902085831 60 194 0.0 1.0 0.00 0.00 0.00 86 999.1
20260902085328 60 194 0.0 2.0 0.00 0.00 0.00 86 999.2
20260902084326 60 194 1.0 2.0 0.00 0.00 0.00 86 999.2
20260902083825 60 195 0.0 2.0 0.00 0.00 0.00 86 999.3
20260902083327 60 195 0.0 3.0 0.00 0.00 0.00 86 999.3
20260902082823 60 196 1.0 3.0 0.00 0.00 0.00 86 999.3
20260902082322 60 195 1.0 3.0 0.00 0.00 0.00 86 999.3
20260902081823 60 200 0.0 3.0 0.00 0.00 0.00 86 999.2
20260902081321 60 202 0.0 3.0 0.00 0.00 0.00 86 999.3
20260902080823 60 202 0.0 0.0 0.00 0.00 0.00 86 999.4
20260902080321 60 202 0.0 1.0 0.00 0.00 0.00 87 999.4
20260902074823 61 216 0.0 2.0 0.00 0.00 0.00 87 999.3
20260902074318 61 217 0.0 3.0 0.00 0.00 0.00 87 999.3
20260902073817 61 217 1.0 3.0 0.00 0.00 0.00 87 999.3
20260902073318 60 258 1.0 2.0 0.00 0.00 0.00 87 999.3
20260902072819 60 213 1.0 3.0 0.00 0.00 0.00 87 999.2
20260902072318 61 211 1.0 3.0 0.00 0.00 0.00 88 999.2
20260902071819 61 231 1.0 4.0 0.00 0.00 0.00 87 999.2
20260902071317 60 230 2.0 4.0 0.00 0.00 0.00 87 999.1
20260902070818 60 242 1.0 4.0 0.00 0.00 0.00 88 999.2
20260902070319 60 247 1.0 4.0 0.00 0.00 0.00 88 999.2
20260902065815 60 223 0.0 2.0 0.00 0.00 0.00 88 999.2
20260902065313 60 222 0.0 2.0 0.00 0.00 0.00 88 999.2
20260902064815 60 222 1.0 3.0 0.00 0.00 0.00 88 999.1
20260902064314 60 222 1.0 3.0 0.00 0.00 0.00 88 999.1
20260902063313 60 242 1.0 2.0 0.00 0.00 0.00 88 999.2
20260902062813 60 224 1.0 2.0 0.00 0.00 0.00 88 999.2
20260902062314 60 219 1.0 3.0 0.00 0.00 0.00 88 999.1
20260902061815 61 214 1.0 5.0 0.00 0.00 0.00 88 999.2
20260902061311 60 169 1.0 5.0 0.00 0.00 0.00 88 999.1
20260902060810 60 211 1.0 3.0 0.00 0.00 0.00 88 999.2
20260902060307 60 248 0.0 3.0 0.00 0.00 0.00 88 999.3
20260902055807 60 190 0.0 2.0 0.00 0.00 0.00 88 999.3
20260902055307 60 190 0.0 2.0 0.00 0.00 0.00 88 999.3
20260902054803 60 190 0.0 2.0 0.00 0.00 0.00 88 999.2
20260902054302 60 190 1.0 3.0 0.00 0.00 0.00 88 999.3
20260902053803 60 190 1.0 3.0 0.00 0.00 0.00 88 999.3
20260902053302 60 190 1.0 2.0 0.00 0.00 0.00 88 999.4
20260902052802 60 189 1.0 5.0 0.00 0.00 0.00 88 999.4
20260902052306 60 190 2.0 5.0 0.00 0.00 0.00 88 999.3
20260902051800 60 188 1.0 4.0 0.00 0.00 0.00 88 999.3
20260902051301 60 188 2.0 4.0 0.00 0.00 0.00 88 999.4
20260902050800 61 188 1.0 4.0 0.00 0.00 0.00 88 999.4
20260902050300 61 189 1.0 4.0 0.00 0.00 0.00 88 999.4
20260902045753 61 219 1.0 4.0 0.00 0.00 0.00 88 999.5
20260902045246 61 211 1.0 3.0 0.00 0.00 0.00 88 999.5
20260902044740 61 215 1.0 3.0 0.00 0.00 0.00 88 999.5
20260902044234 61 227 1.0 3.0 0.00 0.00 0.00 88 999.7
20260902043727 61 228 1.0 4.0 0.00 0.00 0.00 88 999.5
20260902043222 61 213 1.0 4.0 0.00 0.00 0.00 88 999.5
20260902042716 61 232 1.0 5.0 0.00 0.00 0.00 88 999.6
20260902042209 61 275 1.0 5.0 0.00 0.00 0.00 88 999.4
20260902041704 61 302 1.0 4.0 0.00 0.00 0.00 88 999.3
20260902041158 61 265 1.0 7.0 0.00 0.00 0.00 87 999.3
20260902040145 61 189 2.0 5.0 0.00 0.00 0.00 87 999.1
20260902035134 61 177 2.0 7.0 0.00 0.00 0.00 87 999.1
20260902034628 61 236 3.0 7.0 0.00 0.00 0.00 87 999.2
20260902033109 61 280 3.0 11.0 0.00 0.00 0.00 87 998.9
20260902032604 61 194 2.0 11.0 0.00 0.00 0.00 87 998.8
20260902032057 61 317 2.0 5.0 0.00 0.00 0.00 87 998.8
20260902031046 61 225 3.0 9.0 0.00 0.00 0.00 87 998.8
20260902030539 61 227 3.0 9.0 0.00 0.00 0.00 86 998.8
20260902030033 62 237 2.0 8.0 0.00 0.00 0.00 86 998.7
20260902025528 62 275 2.0 8.0 0.00 0.00 0.00 86 998.7
20260902025022 62 231 2.0 5.0 0.00 0.00 0.00 86 998.7
20260902024516 62 178 3.0 9.0 0.00 0.00 0.00 86 998.7
20260902024010 62 275 2.0 9.0 0.00 0.00 0.00 86 998.7
20260902022958 62 233 3.0 7.0 0.00 0.00 0.00 85 998.7
20260902022453 62 198 3.0 7.0 0.00 0.00 0.00 84 998.7
20260902021946 62 227 3.0 8.0 0.00 0.00 0.00 84 998.7
20260902021440 62 175 3.0 8.0 0.00 0.00 0.00 83 998.7
20260902020428 62 201 3.0 8.0 0.00 0.00 0.00 82 998.7
20260902015922 63 131 3.0 9.0 0.00 0.00 0.00 82 998.7
20260902015415 63 230 4.0 13.0 0.00 0.00 0.00 81 998.7
20260902014909 63 242 4.0 13.0 0.00 0.00 0.00 80 998.7
20260902014404 64 213 4.0 9.0 0.00 0.00 0.00 80 998.5
20260902013858 64 227 3.0 9.0 0.00 0.00 0.00 79 998.5
20260902012854 64 80 4.0 10.0 0.00 0.00 0.00 79 998.4
20260902011855 64 222 4.0 10.0 0.00 0.00 0.00 79 998.5
20260902011356 64 236 4.0 9.0 0.00 0.00 0.00 78 998.5
20260902010855 65 219 5.0 10.0 0.00 0.00 0.00 79 998.4
20260902010355 65 238 5.0 11.0 0.00 0.00 0.00 77 998.4
20260902005855 65 234 5.0 12.0 0.00 0.00 0.00 77 998.5